Regional Weather Roundup
Issued by NWS

Home | Current Version | Previous Version | Text Only | Print | Product List | Glossary On
Versions: 1 2 3 4 5 6 7 8 9 10 11 12 13 14 15 16 17 18 19 20 21 22 23 24 25 26 27 28 29 30 31 32 33 34 35 36 37 38 39 40 41 42 43 44 45 46 47 48 49 50
000
ASUS43 KMPX 231601
RWRMN
WEATHER ROUNDUP FOR MINNESOTA
NATIONAL WEATHER SERVICE TWIN CITIES/CHANHASSEN MN
1000 AM CST FRI FEB 23 2018


NOTE: "FAIR" INDICATES FEW OR NO CLOUDS BELOW 12,000 FEET WITH NO
SIGNIFICANT WEATHER AND/OR OBSTRUCTIONS TO VISIBILITY. N/A MEANS
CURRENT SKY AND/OR WEATHER CONDITIONS ARE NOT AVAILABLE.

MNZ060>063-068>070-231700-
   Twin Cities Metro

CITY           SKY/WX    TMP DP  RH WIND       PRES   REMARKS
TWIN CITIES    CLOUDY    26  23  88 W12       30.13R WCI  16
ST PAUL        CLOUDY    27  22  81 W15G24    30.14R WCI  15
CRYSTAL        PTSUNNY   27  20  75 W13       30.12R WCI  16
BLAINE         CLOUDY    28  25  86 W13       30.11R WCI  18
LAKEVILLE      CLOUDY    25  21  86 W10       30.13S WCI  15
EDEN PRAIRIE   CLOUDY    27  20  75 W15       30.13R WCI  15
SOUTH ST PAUL  PTSUNNY   28  23  82 W10G17    30.14R WCI  18
LAKE ELMO      CLOUDY    28  25  86 W9        30.12R WCI  20
$$
MNZ001>005-007-008-013>017-022>024-027-028-231700-
   Northwest Minnesota

CITY           SKY/WX    TMP DP  RH WIND       PRES   REMARKS
BEMIDJI        PTSUNNY   20  16  85 NW9       30.09R WCI   9
HALLOCK        FAIR      10   3  72 NW9       30.16S WCI  -2
ROSEAU         FAIR      12   9  85 W8        30.11S WCI   1
WARROAD        FAIR      16  10  79 W5        30.10S WCI   9
THIEF RVR FALL CLOUDY    13   7  77 W9        30.14R WCI   1
CROOKSTON      FAIR      12   7  79 NW9       30.18R WCI   0
FOSSTON        LGT SNOW  19  10  68 W8        30.13S WCI   9
DETROIT LAKES  SNOW      19  18  93 NW12      30.14R VSB<1/4 WCI   7
MOORHEAD       MIX PCPN  16  10  79 NW12      30.19F WCI   3
PARK RAPIDS    LGT SNOW  21  17  84 NW9       30.08R FOG     WCI  11
MAHNOMEN       FAIR      14  11  87 W8        30.14R WCI   3
$$
MNZ006-009>011-018-025>026-231700-
   North Central Minnesota

CITY           SKY/WX    TMP DP  RH WIND       PRES   REMARKS
BAUDETTE       CLOUDY    18  14  84 W5        30.07S WCI  11
FLAG ISLAND    FAIR      12   7  79 NW6       30.08S WCI   3
INTL FALLS     LGT SNOW  21  18  88 N5        30.06S VSB 1   WCI  15
WASKISH        LGT SNOW  19  18  93 W3        30.08S
BIG FORK       LGT SNOW  25  19  80 CALM      30.05R
LONGVILLE      PTSUNNY   21  18  86 NW6       30.08R WCI  14
GRAND RAPIDS   FLURRIES  24  20  84 NW7       30.06R WCI  16
CRANE LAKE     LGT SNOW  21  19  93 N3        30.05F
ORR            FLURRIES  21  18  86 NW5       30.00F WCI  15
COOK           LGT SNOW  21  19  93 W5        30.02S WCI  15
WALKER         CLOUDY    21  17  84 NW7       30.08R WCI  12
$$
MNZ012-019>021-037-231700-
   Northeast Minnesota

CITY           SKY/WX    TMP DP  RH WIND       PRES   REMARKS
DULUTH         CLOUDY    27  22  81 W7        29.99R WCI  19
ELY            LGT SNOW  23  19  86 CALM      29.99F
HIBBING        CLOUDY    22  18  85 NW9       30.01S WCI  12
EVELETH        FLURRIES  23  19  86 NW5       30.01S WCI  17
DULUTH HARBOR  FLURRIES  28  27  93 SW7       30.05R WCI  21
TWO HARBORS    LGT SNOW  36  27  69 W5        29.98R
GRAND MARAIS     N/A     31  24  75 CALM      29.98F
G MARAIS ARPRT LGT SNOW  25  18  74 NW6       29.93S WCI  18
$$
MNZ029>031-032-039>041-046>048-054>057-064-231700-
   West Central Minnesota

CITY           SKY/WX    TMP DP  RH WIND       PRES   REMARKS
FERGUS FALLS   FAIR      16  12  86 NW10      30.18R WCI   3
WHEATON        SUNNY     19  16  86 NW12      30.22R WCI   7
MORRIS         SUNNY     21  18  86 NW14      30.16R WCI   8
ALEXANDRIA     PTSUNNY   21  18  88 NW10      30.13R WCI  10
ELBOW LAKE     CLOUDY    16  14  94 NW12      30.17R WCI   3
WADENA         MIX PCPN  21  18  86 NW10      30.11R WCI  10
GLENWOOD       FAIR      21  18  86 W14       30.13S WCI   8
APPLETON       PTSUNNY   21  19  93 NW10      30.19R WCI  10
BENSON         CLOUDY    21  18  86 N15       30.18R WCI   8
MADISON          N/A     25  19  80 NW16      30.20R WCI  12
WILLMAR        FAIR      19  18  93 NW10      30.17R WCI   8
$$
MNZ033>034-036-042>043-049>051-058-059-231700-
   Central Minnesota

CITY           SKY/WX    TMP DP  RH WIND       PRES   REMARKS
ST CLOUD       FAIR      24  19  81 NW16      30.11R WCI  11
SAUK CENTRE    FAIR      22  17  83 NW12      30.11F WCI  10
PAYNESVILLE    FAIR      23  19  86 W8        30.13S WCI  14
AITKIN         FLURRIES  21  18  86 W6        30.06R WCI  14
PINE RIVER     PTSUNNY   21  18  86 NW6       30.12R WCI  14
BRAINERD       CLOUDY    23  18  81 W9        30.09R WCI  13
STAPLES        CLOUDY    21  18  86 W9        30.11R WCI  11
LONG PRAIRIE   FAIR      21  18  86 W13       30.12S WCI   9
LITTLE FALLS   PTSUNNY   27  16  63 W14       30.11S WCI  15
LITCHFIELD     FAIR      25  21  86 W10G16    30.14R WCI  15
BUFFALO        FAIR      27  20  77 W9        30.14R WCI  17
MAPLE LAKE     FAIR      28  22  79 NW10      30.13S WCI  18
HUTCHINSON     CLOUDY    23  20  88 W10       30.16R WCI  13
$$
MNZ037-044-045-052-053-231700-
   East Central Minnesota

CITY           SKY/WX    TMP DP  RH WIND       PRES   REMARKS
PRINCETON      FAIR      28  21  74 W9        30.11R WCI  20
CAMBRIDGE        N/A     28  19  69 W8G16     30.10R WCI  20
RUSH CITY      CLOUDY    27  23  83 W7        30.09R WCI  20
MOOSE LAKE     CLOUDY    28  21  74 W9        30.03R WCI  20
HINCKLEY       CLOUDY    28  23  80 W8        30.07R WCI  20
CLOQUET        FLURRIES  27  21  80 W8        30.02R WCI  18
MCGREGOR       CLOUDY    25  21  86 W5        30.06R WCI  19
$$
MNZ071>073-080-081-089-090-097-098-231700-
   Southwest Minnesota

CITY           SKY/WX    TMP DP  RH WIND       PRES   REMARKS
MONTEVIDEO     SUNNY     23  21  93 NW7       30.19R WCI  15
GRANITE FALLS  CLOUDY    19  17  92 W7        30.20R FOG     WCI   9
CANBY          SUNNY     24  19  80 NW13      30.21R WCI  12
MARSHALL       SUNNY     22  17  81 NW15      30.19R WCI   9
REDWOOD FALLS  CLOUDY    19  16  88 NW9       30.18R FOG     WCI   8
OLIVIA         CLOUDY    21  19  93 NW12G18   30.16R FOG     WCI   9
PIPESTONE      PTSUNNY   19  18  93 NW8       30.17R WCI   9
WORTHINGTON    CLOUDY    22  18  85 W12       30.20R WCI  10
JACKSON        SUNNY     21  18  86 W12       30.20R WCI   9
TRACY          SUNNY     23  19  86 NW13      30.17R WCI  11
SLAYTON        SUNNY     22  19  87 W13       30.17R WCI  10
$$
MNZ065>067-074>077-082>085-091>093-231700-
   South Central Minnesota

CITY           SKY/WX    TMP DP  RH WIND       PRES   REMARKS
MANKATO        CLOUDY    21  18  88 W7        30.18R FOG     WCI  12
NEW ULM        SUNNY     18  12  79 W13       30.18R WCI   4
ST JAMES       SUNNY     21  16  79 W12       30.20R WCI   9
FAIRMONT       SUNNY     22  17  81 W12       30.21R WCI  10
GLENCOE        PTSUNNY   26  24  94 W8        30.14R FOG     WCI  17
FARIBAULT      FAIR      25  21  86 W10       30.15R WCI  15
OWATONNA       PTSUNNY   21  19  93 W13       30.16R FOG     WCI   9
WASECA         CLOUDY    23  19  86 W14       30.18R FOG     WCI  11
ALBERT LEA     PTSUNNY   21  18  86 W3        30.17R
$$
MNZ078>079-086>088-094>096-231700-
   Southeast Minnesota

CITY           SKY/WX    TMP DP  RH WIND       PRES   REMARKS
ROCHESTER      CLOUDY    25  22  88 W15       30.13R WCI  13
RED WING       CLOUDY    28  23  80 NW14      30.13R WCI  17
STANTON        CLOUDY    26  22  84 W8        30.14R WCI  18
DODGE CENTER   CLOUDY    25  19  80 W13       30.14R WCI  13
WINONA         CLOUDY    34  28  80 W14       30.12R WCI  24
AUSTIN         CLOUDY    23  19  86 W15       30.16R WCI  10
PRESTON        CLOUDY    27  23  87 W10       30.15R WCI  17
$$
ABBREVIATIONS USED IN REMARKS
   TC - TEMPERATURES IN CELSIUS
  WCI - WIND CHILL INDEX
   HX - HEAT INDEX
  VSB - VISIBILITY
$$



USA.gov is the U.S. government's official web portal to all federal, state and local government web resources and services.